EW9774 Weather Reports


Display with metric or nautical units.
time (UTC)temp
F
wind
direction
speed
MPH
gust
MPH
rain 1hr
in
rain 24hr
in
rain mn
in
humidity
%
barometer
mb
20260902040033 62 181 4.0 10.0 0.00 0.00 0.00 69 1011.9
20260902033032 62 189 4.0 10.0 0.00 0.00 0.00 70 1011.7
20260902031532 61 182 5.0 12.0 0.00 0.00 0.00 70 1011.6
20260902024531 62 183 3.0 8.0 0.00 0.00 0.00 67 1011.7
20260902023030 63 181 4.0 12.0 0.00 0.00 0.00 67 1011.5
20260902021532 63 182 4.0 11.0 0.00 0.00 0.00 67 1011.5
20260902020030 64 302 2.0 11.0 0.00 0.00 0.00 65 1011.3
20260902010031 66 189 4.0 12.0 0.00 0.00 0.00 63 1011.0
20260902004532 67 198 3.0 17.0 0.00 0.00 0.00 62 1010.8
20260902003029 66 191 4.0 16.0 0.00 0.00 0.00 62 1010.6
20260902001648 67 191 6.0 18.0 0.00 0.00 0.00 62 1010.5
20260902000108 66 194 8.0 20.0 0.00 0.00 0.00 62 1010.6
20260901231531 68 190 5.0 18.0 0.00 0.00 0.00 60 1010.6
20260901230106 68 192 7.0 20.0 0.00 0.00 0.00 61 1010.6
20260901223107 67 197 6.0 19.0 0.00 0.00 0.00 62 1010.4
20260901221530 68 190 9.0 26.0 0.00 0.00 0.00 58 1010.0
20260901220030 70 189 7.0 21.0 0.00 0.00 0.00 56 1009.9
20260901214531 71 217 6.0 25.0 0.00 0.00 0.00 57 1009.8
20260901213108 71 329 5.0 15.0 0.00 0.00 0.00 58 1009.9
20260901210109 69 360 4.0 13.0 0.00 0.00 0.00 58 1010.2
20260901204533 70 225 6.0 21.0 0.00 0.00 0.00 56 1010.3
20260901201531 71 194 7.0 18.0 0.00 0.00 0.00 55 1010.5
20260901200031 72 199 5.0 20.0 0.00 0.00 0.00 55 1010.6
20260901194530 72 314 3.0 11.0 0.00 0.00 0.00 56 1010.9
20260901193107 72 298 3.0 12.0 0.00 0.00 0.00 56 1011.1
20260901191531 72 200 3.0 11.0 0.00 0.00 0.00 57 1011.4
20260901181530 68 2 3.0 9.0 0.00 0.00 0.00 64 1011.8
20260901180040 67 191 2.0 10.0 0.00 0.00 0.00 65 1012.0
20260901174532 67 197 4.0 14.0 0.00 0.00 0.00 66 1012.0
20260901173107 66 278 1.0 7.0 0.00 0.00 0.00 67 1012.0
20260901171532 65 187 3.0 11.0 0.00 0.00 0.00 71 1012.0
20260901170032 63 185 3.0 11.0 0.00 0.00 0.00 74 1012.1
20260901164531 61 184 3.0 11.0 0.00 0.00 0.00 77 1012.1
20260901161531 59 188 1.0 4.0 0.00 0.00 0.00 85 1012.2
20260901160031 58 175 0.0 4.0 0.00 0.00 0.00 87 1012.1
20260901154529 57 200 2.0 4.0 0.00 0.00 0.00 90 1012.0
20260901151530 55 189 1.0 4.0 0.00 0.00 0.00 91 1012.0
20260901150032 55 188 2.0 3.0 0.00 0.00 0.00 91 1011.8
20260901144530 54 179 1.0 3.0 0.00 0.00 0.00 91 1011.7
20260901143030 53 193 2.0 4.0 0.00 0.00 0.00 91 1011.7
20260901140033 53 202 2.0 4.0 0.00 0.00 0.00 89 1011.4
20260901133029 54 175 2.0 4.0 0.00 0.00 0.00 88 1011.1
20260901131531 54 194 2.0 5.0 0.00 0.00 0.00 88 1011.0
20260901130029 54 167 2.0 5.0 0.00 0.00 0.00 88 1010.8
20260901124609 54 196 2.0 4.0 0.00 0.00 0.00 88 1010.8
20260901123031 54 177 2.0 4.0 0.00 0.00 0.00 87 1010.7
20260901121608 54 197 2.0 4.0 0.00 0.00 0.00 86 1010.7
20260901120106 54 180 2.0 4.0 0.00 0.00 0.00 86 1010.7
20260901114603 54 185 3.0 5.0 0.00 0.00 0.00 86 1010.7
20260901111609 53 190 3.0 4.0 0.00 0.00 0.00 86 1010.6
20260901103030 52 190 2.0 4.0 0.00 0.00 0.00 85 1010.5
20260901101530 52 202 1.0 4.0 0.00 0.00 0.00 85 1010.5
20260901100030 52 191 1.0 4.0 0.00 0.00 0.00 84 1010.4
20260901094530 52 182 1.0 3.0 0.00 0.00 0.00 83 1010.4
20260901093030 52 180 1.0 4.0 0.00 0.00 0.00 82 1010.4
20260901084647 53 202 0.0 0.0 0.00 0.00 0.00 82 1010.2
20260901081531 53 187 0.0 3.0 0.00 0.00 0.00 79 1010.4
20260901080029 53 180 2.0 3.0 0.00 0.00 0.00 77 1010.2
20260901074530 54 183 3.0 4.0 0.00 0.00 0.00 75 1010.1
20260901073032 56 185 1.0 3.0 0.00 0.00 0.00 72 1010.1
20260901071529 57 201 1.0 4.0 0.00 0.00 0.00 72 1010.0
20260901070148 58 193 2.0 4.0 0.00 0.00 0.00 68 1009.9
20260901064531 60 188 2.0 4.0 0.00 0.00 0.00 64 1009.9
20260901063030 61 194 2.0 7.0 0.00 0.00 0.00 63 1010.0
20260901061531 58 181 5.0 10.0 0.00 0.00 0.00 69 1010.0
20260901060031 57 181 3.0 6.0 0.00 0.00 0.00 69 1010.0
20260901054530 60 197 0.0 5.0 0.00 0.00 0.00 65 1010.1
20260901053031 62 147 1.0 3.0 0.00 0.00 0.00 60 1010.0
20260901051532 62 180 5.0 11.0 0.00 0.00 0.00 61 1009.9
20260901050032 60 180 5.0 12.0 0.00 0.00 0.00 65 1010.0
20260901044530 60 180 4.0 6.0 0.00 0.00 0.00 63 1010.0
20260901043108 62 198 3.0 6.0 0.00 0.00 0.00 61 1009.8
20260901041530 63 189 3.0 5.0 0.00 0.00 0.00 58 1009.6